Regional Weather Roundup
Issued by NWS Little Rock, AR

Home | Current Version | Previous Version | Graphics & Text | Print | Product List | Glossary On
Versions: 1 2 3 4 5 6 7 8 9 10 11 12 13 14 15 16 17 18 19 20 21 22 23 24 25 26 27 28 29 30 31 32 33 34 35 36 37 38 39 40 41 42 43 44 45 46 47 48
000
ASUS44 KLZK 302105
RWRLZK

WEATHER ROUNDUP FOR ARKANSAS
NATIONAL WEATHER SERVICE LITTLE ROCK AR
400 PM CDT SUN AUG 30 2015

NOTE: "FAIR" INDICATES FEW OR NO CLOUDS BELOW 12,000 FEET WITH NO
SIGNIFICANT WEATHER AND/OR OBSTRUCTIONS TO VISIBILITY.

ARZ001-003-010-029-302200-
NORTHWEST ARKANSAS

CITY           SKY/WX    TMP DP  RH WIND       PRES   REMARKS
FAYETTEVILLE   MOSUNNY   85  70  60 S13       30.00F HX  89
FORT SMITH     PTSUNNY   91  67  44 E5        29.93F HX  94
BENTONVILLE    PTSUNNY   86  66  51 S8        30.01F HX  88
ROGERS         MOSUNNY   86  69  56 SE13      30.01F HX  90
SILOAM SPGS    PTSUNNY   84  66  54 S15       29.98F HX  86
HIGHFILL       MOSUNNY   86  71  60 S9        30.00F HX  91
SPRINGDALE     MOSUNNY   86  70  58 S9        30.02F HX  90
$$

ARZ004-005-016-302200-
NORTH CENTRAL ARKANSAS

CITY           SKY/WX    TMP DP  RH WIND       PRES   REMARKS
BATESVILLE     PTSUNNY   91  72  52 SE6       29.99F HX  98
FLIPPIN        MOSUNNY   88  66  48 S5        29.99F HX  90
MTN HOME       MOSUNNY   87  70  56 VRB5      30.00F HX  92
$$

ARZ040-041-302200-
WEST CENTRAL ARKANSAS

CITY           SKY/WX    TMP DP  RH WIND       PRES   REMARKS
MENA           MOSUNNY   95  64  36 S5        29.98F HX  97
MOUNT IDA      MOSUNNY   91  66  43 VRB5      29.97F HX  93
$$

ARZ009-017-025-026-028-302200-
NORTHEAST ARKANSAS

CITY           SKY/WX    TMP DP  RH WIND       PRES   REMARKS
JONESBORO      SUNNY     87  69  54 SW6       29.99F HX  91
NEWPORT        SUNNY     90  73  57 S8        30.00F HX  98
WALNUT RIDGE   SUNNY     90  68  48 SE9       29.98F HX  93
BLYTHEVILLE    SUNNY     89  71  55 E5        30.00F HX  95
$$

ARZ022-023-033-042-044-302200-
CENTRAL ARKANSAS

CITY           SKY/WX    TMP DP  RH WIND       PRES   REMARKS
LITTLE ROCK    MOSUNNY   93  64  38 SE12      29.97F HX  94
N LITTLE ROCK  MOSUNNY   93  64  38 SW8       29.97F HX  94
JACKSONVILLE   SUNNY     95  63  34 S9G17     29.96F HX  96
SEARCY         SUNNY     93  69  45 S8        29.99F HX  98
HOT SPRINGS    MOSUNNY   92  65  40 SW6       29.98F HX  94
RUSSELLVILLE   MOSUNNY   92  66  42 SW7       29.95F HX  94
$$

ARZ036-302200-
EAST ARKANSAS

CITY           SKY/WX    TMP DP  RH WIND       PRES   REMARKS
WEST MEMPHIS   MOSUNNY   88  70  55 S7        29.98F HX  93
$$

ARZ050-053-066-070-073-302200-
SOUTHWEST ARKANSAS

CITY           SKY/WX    TMP DP  RH WIND       PRES   REMARKS
ARKADELPHIA    FAIR      95  66  38 SW8       29.97F HX  98
CAMDEN         SUNNY     93  63  36 S3        29.97F HX  94
TEXARKANA      MOSUNNY   93  66  40 S10       29.97F HX  96
EL DORADO      MOSUNNY   96  61  31 S6        29.97F HX  96
DE QUEEN       MOSUNNY   94  64  37 S9        29.93F HX  95
$$

ARZ056-057-069-302200-
SOUTHEAST ARKANSAS

CITY           SKY/WX    TMP DP  RH WIND       PRES   REMARKS
PINE BLUFF     PTSUNNY   87  65  47 W9        29.97F HX  89
STUTTGART      SUNNY     93  64  38 SE7       29.98F HX  95
MONTICELLO     MOSUNNY   95  62  33 CALM      29.96F HX  96

$$




USA.gov is the U.S. government's official web portal to all federal, state and local government web resources and services.